Year,Month,Day,Hour,Minute,Value (Times are PST for temperature in C)
2003,05,15,00,00,7.60
2003,05,15,00,01,7.70
2003,05,15,00,02,7.70
2003,05,15,00,03,7.70
2003,05,15,00,04,7.70
2003,05,15,00,05,7.60
2003,05,15,00,06,7.60
2003,05,15,00,07,7.60
2003,05,15,00,08,7.50
2003,05,15,00,09,7.50
2003,05,15,00,10,7.50
2003,05,15,00,11,7.50
2003,05,15,00,12,7.40
2003,05,15,00,13,7.40
2003,05,15,00,14,7.40
2003,05,15,00,15,7.40
2003,05,15,00,16,7.40
2003,05,15,00,17,7.40
2003,05,15,00,18,7.30
2003,05,15,00,19,7.30
2003,05,15,00,20,7.30
2003,05,15,00,21,7.20
2003,05,15,00,22,7.20
2003,05,15,00,23,7.20
2003,05,15,00,24,7.20
2003,05,15,00,25,7.20
2003,05,15,00,26,7.30
2003,05,15,00,27,7.20
2003,05,15,00,28,7.20
2003,05,15,00,29,7.10
2003,05,15,00,30,7.10
2003,05,15,00,31,7.10
2003,05,15,00,32,7.00
2003,05,15,00,33,7.00
2003,05,15,00,34,7.10
2003,05,15,00,35,7.10
2003,05,15,00,36,7.10
2003,05,15,00,37,7.20
2003,05,15,00,38,7.20
2003,05,15,00,39,7.20
2003,05,15,00,40,7.10
2003,05,15,00,41,7.10
2003,05,15,00,42,7.00
2003,05,15,00,43,6.90
2003,05,15,00,44,6.90
2003,05,15,00,45,6.90
2003,05,15,00,46,7.00
2003,05,15,00,47,6.90
2003,05,15,00,48,7.00
2003,05,15,00,49,7.00
2003,05,15,00,50,7.00
2003,05,15,00,51,7.00
2003,05,15,00,52,7.10
2003,05,15,00,53,7.10
2003,05,15,00,54,7.10
2003,05,15,00,55,7.00
2003,05,15,00,56,7.00
2003,05,15,00,57,7.10
2003,05,15,00,58,7.10
2003,05,15,00,59,7.20
2003,05,15,01,00,7.20
2003,05,15,01,01,7.30
2003,05,15,01,02,7.20
2003,05,15,01,03,7.30
2003,05,15,01,04,7.20
2003,05,15,01,05,7.30
2003,05,15,01,06,7.20
2003,05,15,01,07,7.20
2003,05,15,01,08,7.10
2003,05,15,01,09,7.10
2003,05,15,01,10,7.10
2003,05,15,01,11,7.10
2003,05,15,01,12,7.20
2003,05,15,01,13,7.20
2003,05,15,01,14,7.20
2003,05,15,01,15,7.10
2003,05,15,01,16,7.20
2003,05,15,01,17,7.10
2003,05,15,01,18,7.20
2003,05,15,01,19,7.20
2003,05,15,01,20,7.10
2003,05,15,01,21,7.10
2003,05,15,01,22,7.00
2003,05,15,01,23,7.00
2003,05,15,01,24,7.00
2003,05,15,01,25,7.00
2003,05,15,01,26,7.00
2003,05,15,01,27,7.00
2003,05,15,01,28,7.00
2003,05,15,01,29,6.90
2003,05,15,01,30,6.80
2003,05,15,01,31,6.90
2003,05,15,01,32,6.90
2003,05,15,01,33,6.90
2003,05,15,01,34,6.90
2003,05,15,01,35,6.90
2003,05,15,01,36,7.00
2003,05,15,01,37,7.00
2003,05,15,01,38,7.00
2003,05,15,01,39,7.00
2003,05,15,01,40,6.90
2003,05,15,01,41,6.90
2003,05,15,01,42,6.80
2003,05,15,01,43,6.90
2003,05,15,01,44,6.80
2003,05,15,01,45,6.90
2003,05,15,01,46,6.80
2003,05,15,01,47,6.80
2003,05,15,01,48,6.80
2003,05,15,01,49,6.90
2003,05,15,01,50,6.90
2003,05,15,01,51,6.80
2003,05,15,01,52,6.80
2003,05,15,01,53,6.80
2003,05,15,01,54,6.80
2003,05,15,01,55,6.90
2003,05,15,01,56,7.00
2003,05,15,01,57,6.90
2003,05,15,01,58,6.90
2003,05,15,01,59,6.90
2003,05,15,02,00,6.90
2003,05,15,02,01,6.90
2003,05,15,02,02,6.90
2003,05,15,02,03,7.00
2003,05,15,02,04,7.00
2003,05,15,02,05,7.00
2003,05,15,02,06,7.00
2003,05,15,02,07,6.90
2003,05,15,02,08,6.90
2003,05,15,02,09,7.00
2003,05,15,02,10,7.00
2003,05,15,02,11,7.10
2003,05,15,02,12,7.10
2003,05,15,02,13,7.10
2003,05,15,02,14,7.00
2003,05,15,02,15,7.00
2003,05,15,02,16,6.90
2003,05,15,02,17,6.80
2003,05,15,02,18,6.80
2003,05,15,02,19,6.80
2003,05,15,02,20,6.80
2003,05,15,02,21,6.80
2003,05,15,02,22,6.80
2003,05,15,02,23,6.70
2003,05,15,02,24,6.60
2003,05,15,02,25,6.60
2003,05,15,02,26,6.50
2003,05,15,02,27,6.50
2003,05,15,02,28,6.50
2003,05,15,02,29,6.50
2003,05,15,02,30,6.60
2003,05,15,02,31,6.70
2003,05,15,02,32,6.70
2003,05,15,02,33,6.70
2003,05,15,02,34,6.70
2003,05,15,02,35,6.70
2003,05,15,02,36,6.60
2003,05,15,02,37,6.60
2003,05,15,02,38,6.50
2003,05,15,02,39,6.50
2003,05,15,02,40,6.60
2003,05,15,02,41,6.60
2003,05,15,02,42,6.60
2003,05,15,02,43,6.60
2003,05,15,02,44,6.60
2003,05,15,02,45,6.60
2003,05,15,02,46,6.50
2003,05,15,02,47,6.40
2003,05,15,02,48,6.40
2003,05,15,02,49,6.50
2003,05,15,02,50,6.50
2003,05,15,02,51,6.50
2003,05,15,02,52,6.40
2003,05,15,02,53,6.40
2003,05,15,02,54,6.50
2003,05,15,02,55,6.60
2003,05,15,02,56,6.60
2003,05,15,02,57,6.60
2003,05,15,02,58,6.70
2003,05,15,02,59,6.70
2003,05,15,03,00,6.70
2003,05,15,03,01,6.70
2003,05,15,03,02,6.70
2003,05,15,03,03,6.60
2003,05,15,03,04,6.60
2003,05,15,03,05,6.70
2003,05,15,03,06,6.70
2003,05,15,03,07,6.70
2003,05,15,03,08,6.70
2003,05,15,03,09,6.60
2003,05,15,03,10,6.40
2003,05,15,03,11,6.40
2003,05,15,03,12,6.20
2003,05,15,03,13,6.10
2003,05,15,03,14,6.00
2003,05,15,03,15,5.90
2003,05,15,03,16,5.80
2003,05,15,03,17,5.70
2003,05,15,03,18,5.70
2003,05,15,03,19,5.70
2003,05,15,03,20,5.70
2003,05,15,03,21,5.70
2003,05,15,03,22,5.70
2003,05,15,03,23,5.80
2003,05,15,03,24,5.80
2003,05,15,03,25,5.90
2003,05,15,03,26,5.90
2003,05,15,03,27,5.90
2003,05,15,03,28,5.90
2003,05,15,03,29,5.90
2003,05,15,03,30,6.10
2003,05,15,03,31,6.10
2003,05,15,03,32,6.20
2003,05,15,03,33,6.40
2003,05,15,03,34,6.40
2003,05,15,03,35,6.40
2003,05,15,03,36,6.40
2003,05,15,03,37,6.50
2003,05,15,03,38,6.60
2003,05,15,03,39,6.60
2003,05,15,03,40,6.70
2003,05,15,03,41,6.60
2003,05,15,03,42,6.70
2003,05,15,03,43,6.80
2003,05,15,03,44,6.80
2003,05,15,03,45,6.80
2003,05,15,03,46,6.70
2003,05,15,03,47,6.70
2003,05,15,03,48,6.70
2003,05,15,03,49,6.70
2003,05,15,03,50,6.80
2003,05,15,03,51,6.80
2003,05,15,03,52,6.80
2003,05,15,03,53,6.70
2003,05,15,03,54,6.70
2003,05,15,03,55,6.80
2003,05,15,03,56,6.70
2003,05,15,03,57,6.80
2003,05,15,03,58,6.80
2003,05,15,03,59,6.70
2003,05,15,04,00,6.70
2003,05,15,04,01,6.60
2003,05,15,04,02,6.60
2003,05,15,04,03,6.50
2003,05,15,04,04,6.40
2003,05,15,04,05,6.40
2003,05,15,04,06,6.30
2003,05,15,04,07,6.30
2003,05,15,04,08,6.30
2003,05,15,04,09,6.30
2003,05,15,04,10,6.20
2003,05,15,04,11,6.10
2003,05,15,04,12,6.10
2003,05,15,04,13,6.00
2003,05,15,04,14,6.00
2003,05,15,04,15,6.00
2003,05,15,04,16,6.00
2003,05,15,04,17,6.00
2003,05,15,04,18,5.90
2003,05,15,04,19,5.90
2003,05,15,04,20,5.90
2003,05,15,04,21,5.90
2003,05,15,04,22,5.90
2003,05,15,04,23,5.80
2003,05,15,04,24,5.80
2003,05,15,04,25,5.80
2003,05,15,04,26,5.80
2003,05,15,04,27,5.80
2003,05,15,04,28,5.90
2003,05,15,04,29,5.90
2003,05,15,04,30,5.90
2003,05,15,04,31,5.80
2003,05,15,04,32,5.80
2003,05,15,04,33,5.70
2003,05,15,04,34,5.70
2003,05,15,04,35,5.70
2003,05,15,04,36,5.70
2003,05,15,04,37,5.70
2003,05,15,04,38,5.60
2003,05,15,04,39,5.60
2003,05,15,04,40,5.50
2003,05,15,04,41,5.50
2003,05,15,04,42,5.50
2003,05,15,04,43,5.40
2003,05,15,04,44,5.40
2003,05,15,04,45,5.30
2003,05,15,04,46,5.30
2003,05,15,04,47,5.30
2003,05,15,04,48,5.30
2003,05,15,04,49,5.30
2003,05,15,04,50,5.20
2003,05,15,04,51,5.20
2003,05,15,04,52,5.20
2003,05,15,04,53,5.20
2003,05,15,04,54,5.30
2003,05,15,04,55,5.30
2003,05,15,04,56,5.30
2003,05,15,04,57,5.40
2003,05,15,04,58,5.50
2003,05,15,04,59,5.60
2003,05,15,05,00,5.60
2003,05,15,05,01,5.60
2003,05,15,05,02,5.70
2003,05,15,05,03,5.70
2003,05,15,05,04,5.80
2003,05,15,05,05,5.80
2003,05,15,05,06,5.90
2003,05,15,05,07,5.90
2003,05,15,05,08,5.80
2003,05,15,05,09,5.80
2003,05,15,05,10,5.70
2003,05,15,05,11,5.60
2003,05,15,05,12,5.60
2003,05,15,05,13,5.50
2003,05,15,05,14,5.40
2003,05,15,05,15,5.30
2003,05,15,05,16,5.20
2003,05,15,05,17,5.20
2003,05,15,05,18,5.10
2003,05,15,05,19,5.10
2003,05,15,05,20,5.10
2003,05,15,05,21,5.10
2003,05,15,05,22,5.00
2003,05,15,05,23,4.90
2003,05,15,05,24,4.90
2003,05,15,05,25,4.90
2003,05,15,05,26,4.90
2003,05,15,05,27,4.90
2003,05,15,05,28,4.80
2003,05,15,05,29,4.80
2003,05,15,05,30,4.80
2003,05,15,05,31,4.70
2003,05,15,05,32,4.70
2003,05,15,05,33,4.70
2003,05,15,05,34,4.70
2003,05,15,05,35,4.70
2003,05,15,05,36,4.70
2003,05,15,05,37,4.70
2003,05,15,05,38,4.60
2003,05,15,05,39,4.60
2003,05,15,05,40,4.60
2003,05,15,05,41,4.60
2003,05,15,05,42,4.60
2003,05,15,05,43,4.60
2003,05,15,05,44,4.50
2003,05,15,05,45,4.50
2003,05,15,05,46,4.50
2003,05,15,05,47,4.50
2003,05,15,05,48,4.40
2003,05,15,05,49,4.40
2003,05,15,05,50,4.40
2003,05,15,05,51,4.40
2003,05,15,05,52,4.30
2003,05,15,05,53,4.30
2003,05,15,05,54,4.30
2003,05,15,05,55,4.20
2003,05,15,05,56,4.20
2003,05,15,05,57,4.20
2003,05,15,05,58,4.30
2003,05,15,05,59,4.40
2003,05,15,06,00,4.40
2003,05,15,06,01,4.50
2003,05,15,06,02,4.50
2003,05,15,06,03,4.60
2003,05,15,06,04,4.60
2003,05,15,06,05,4.70
2003,05,15,06,06,4.90
2003,05,15,06,07,5.00
2003,05,15,06,08,5.10
2003,05,15,06,09,5.10
2003,05,15,06,10,5.20
2003,05,15,06,11,5.20
2003,05,15,06,12,5.30
2003,05,15,06,13,5.40
2003,05,15,06,14,5.40
2003,05,15,06,15,5.40
2003,05,15,06,16,5.50
2003,05,15,06,17,5.60
2003,05,15,06,18,5.60
2003,05,15,06,19,5.70
2003,05,15,06,20,5.70
2003,05,15,06,21,5.70
2003,05,15,06,22,5.70
2003,05,15,06,23,5.70
2003,05,15,06,24,5.80
2003,05,15,06,25,5.80
2003,05,15,06,26,5.80
2003,05,15,06,27,5.80
2003,05,15,06,28,5.90
2003,05,15,06,29,6.00
2003,05,15,06,30,6.00
2003,05,15,06,31,6.00
2003,05,15,06,32,6.00
2003,05,15,06,33,6.10
2003,05,15,06,34,6.10
2003,05,15,06,35,6.20
2003,05,15,06,36,6.20
2003,05,15,06,37,6.30
2003,05,15,06,38,6.30
2003,05,15,06,39,6.30
2003,05,15,06,40,6.40
2003,05,15,06,41,6.40
2003,05,15,06,42,6.50
2003,05,15,06,43,6.60
2003,05,15,06,44,6.60
2003,05,15,06,45,6.60
2003,05,15,06,46,6.60
2003,05,15,06,47,6.80
2003,05,15,06,48,6.80
2003,05,15,06,49,6.90
2003,05,15,06,50,6.90
2003,05,15,06,51,6.90
2003,05,15,06,52,7.00
2003,05,15,06,53,7.10
2003,05,15,06,54,7.20
2003,05,15,06,55,7.20
2003,05,15,06,56,7.20
2003,05,15,06,57,7.30
2003,05,15,06,58,7.30
2003,05,15,06,59,7.30
2003,05,15,07,00,7.30
2003,05,15,07,01,7.30
2003,05,15,07,02,7.30
2003,05,15,07,03,7.40
2003,05,15,07,04,7.40
2003,05,15,07,05,7.30
2003,05,15,07,06,7.30
2003,05,15,07,07,7.30
2003,05,15,07,08,7.30
2003,05,15,07,09,7.30
2003,05,15,07,10,7.30
2003,05,15,07,11,7.30
2003,05,15,07,12,7.30
2003,05,15,07,13,7.30
2003,05,15,07,14,7.30
2003,05,15,07,15,7.30
2003,05,15,07,16,7.30
2003,05,15,07,17,7.30
2003,05,15,07,18,7.30
2003,05,15,07,19,7.40
2003,05,15,07,20,7.50
2003,05,15,07,21,7.50
2003,05,15,07,22,7.50
2003,05,15,07,23,7.50
2003,05,15,07,24,7.60
2003,05,15,07,25,7.70
2003,05,15,07,26,7.70
2003,05,15,07,27,7.70
2003,05,15,07,28,7.70
2003,05,15,07,29,7.70
2003,05,15,07,30,7.70
2003,05,15,07,31,8.00
2003,05,15,07,32,8.10
2003,05,15,07,33,8.20
2003,05,15,07,34,8.20
2003,05,15,07,35,8.40
2003,05,15,07,36,8.40
2003,05,15,07,37,8.40
2003,05,15,07,38,8.50
2003,05,15,07,39,8.50
2003,05,15,07,40,8.50
2003,05,15,07,41,8.50
2003,05,15,07,42,8.50
2003,05,15,07,43,8.50
2003,05,15,07,44,8.50
2003,05,15,07,45,8.50
2003,05,15,07,46,8.70
2003,05,15,07,47,8.80
2003,05,15,07,48,8.80
2003,05,15,07,49,8.80
2003,05,15,07,50,8.90
2003,05,15,07,51,9.00
2003,05,15,07,52,9.10
2003,05,15,07,53,9.00
2003,05,15,07,54,9.00
2003,05,15,07,55,9.10
2003,05,15,07,56,9.00
2003,05,15,07,57,9.00
2003,05,15,07,58,9.10
2003,05,15,07,59,9.20
2003,05,15,08,00,9.20
2003,05,15,08,01,9.10
2003,05,15,08,02,9.10
2003,05,15,08,03,9.10
2003,05,15,08,04,9.00
2003,05,15,08,05,9.00
2003,05,15,08,06,9.10
2003,05,15,08,07,9.00
2003,05,15,08,08,9.00
2003,05,15,08,09,9.10
2003,05,15,08,10,9.20
2003,05,15,08,11,9.20
2003,05,15,08,12,9.20
2003,05,15,08,13,9.20
2003,05,15,08,14,9.20
2003,05,15,08,15,9.20
2003,05,15,08,16,9.30
2003,05,15,08,17,9.40
2003,05,15,08,18,9.40
2003,05,15,08,19,9.50
2003,05,15,08,20,9.50
2003,05,15,08,21,9.70
2003,05,15,08,22,9.80
2003,05,15,08,23,9.90
2003,05,15,08,24,9.80
2003,05,15,08,25,9.90
2003,05,15,08,26,9.90
2003,05,15,08,27,9.90
2003,05,15,08,28,10.10
2003,05,15,08,29,10.10
2003,05,15,08,30,10.10
2003,05,15,08,31,10.10
2003,05,15,08,32,10.10
2003,05,15,08,33,10.10
2003,05,15,08,34,10.10
2003,05,15,08,35,10.10
2003,05,15,08,36,9.90
2003,05,15,08,37,9.90
2003,05,15,08,38,9.80
2003,05,15,08,39,9.80
2003,05,15,08,40,10.00
2003,05,15,08,41,10.10
2003,05,15,08,42,10.10
2003,05,15,08,43,10.10
2003,05,15,08,44,10.10
2003,05,15,08,45,10.10
2003,05,15,08,46,10.10
2003,05,15,08,47,10.10
2003,05,15,08,48,10.30
2003,05,15,08,49,10.20
2003,05,15,08,50,10.20
2003,05,15,08,51,10.30
2003,05,15,08,52,10.40
2003,05,15,08,53,10.50
2003,05,15,08,54,10.60
2003,05,15,08,55,10.60
2003,05,15,08,56,10.60
2003,05,15,08,57,10.60
2003,05,15,08,58,10.60
2003,05,15,08,59,10.60
2003,05,15,09,00,10.60
2003,05,15,09,01,10.60
2003,05,15,09,02,10.60
2003,05,15,09,03,10.50
2003,05,15,09,04,10.40
2003,05,15,09,05,10.50
2003,05,15,09,06,10.60
2003,05,15,09,07,10.60
2003,05,15,09,08,10.60
2003,05,15,09,09,10.60
2003,05,15,09,10,10.60
2003,05,15,09,11,10.60
2003,05,15,09,12,10.60
2003,05,15,09,13,10.50
2003,05,15,09,14,10.50
2003,05,15,09,15,10.40
2003,05,15,09,16,10.40
2003,05,15,09,17,10.40
2003,05,15,09,18,10.60
2003,05,15,09,19,10.70
2003,05,15,09,20,10.80
2003,05,15,09,21,10.80
2003,05,15,09,22,10.70
2003,05,15,09,23,10.70
2003,05,15,09,24,10.70
2003,05,15,09,25,10.70
2003,05,15,09,26,10.80
2003,05,15,09,27,10.90
2003,05,15,09,28,10.90
2003,05,15,09,29,10.90
2003,05,15,09,30,10.90
2003,05,15,09,31,10.90
2003,05,15,09,32,10.90
2003,05,15,09,33,10.80
2003,05,15,09,34,10.80
2003,05,15,09,35,10.80
2003,05,15,09,36,10.70
2003,05,15,09,37,10.90
2003,05,15,09,38,10.80
2003,05,15,09,39,10.90
2003,05,15,09,40,10.90
2003,05,15,09,41,10.80
2003,05,15,09,42,10.80
2003,05,15,09,43,10.80
2003,05,15,09,44,10.80
2003,05,15,09,45,10.80
2003,05,15,09,46,10.80
2003,05,15,09,47,10.60
2003,05,15,09,48,10.70
2003,05,15,09,49,10.70
2003,05,15,09,50,10.60
2003,05,15,09,51,10.50
2003,05,15,09,52,10.40
2003,05,15,09,53,10.40
2003,05,15,09,54,10.40
2003,05,15,09,55,10.40
2003,05,15,09,56,10.40
2003,05,15,09,57,10.30
2003,05,15,09,58,10.40
2003,05,15,09,59,10.40
2003,05,15,10,00,10.50
2003,05,15,10,01,10.50
2003,05,15,10,02,10.50
2003,05,15,10,03,10.50
2003,05,15,10,04,10.40
2003,05,15,10,05,10.50
2003,05,15,10,06,10.60
2003,05,15,10,07,10.70
2003,05,15,10,08,10.80
2003,05,15,10,09,10.80
2003,05,15,10,10,10.90
2003,05,15,10,11,10.90
2003,05,15,10,12,11.00
2003,05,15,10,13,11.00
2003,05,15,10,14,11.10
2003,05,15,10,15,11.10
2003,05,15,10,16,11.20
2003,05,15,10,17,11.10
2003,05,15,10,18,11.10
2003,05,15,10,19,10.90
2003,05,15,10,20,10.70
2003,05,15,10,21,10.60
2003,05,15,10,22,10.70
2003,05,15,10,23,10.70
2003,05,15,10,24,10.60
2003,05,15,10,25,10.60
2003,05,15,10,26,10.70
2003,05,15,10,27,10.80
2003,05,15,10,28,10.90
2003,05,15,10,29,10.90
2003,05,15,10,30,10.80
2003,05,15,10,31,10.80
2003,05,15,10,32,10.70
2003,05,15,10,33,10.70
2003,05,15,10,34,10.70
2003,05,15,10,35,10.70
2003,05,15,10,36,10.60
2003,05,15,10,37,10.60
2003,05,15,10,38,10.60
2003,05,15,10,39,10.60
2003,05,15,10,40,10.70
2003,05,15,10,41,10.70
2003,05,15,10,42,10.80
2003,05,15,10,43,10.80
2003,05,15,10,44,10.80
2003,05,15,10,45,10.90
2003,05,15,10,46,10.90
2003,05,15,10,47,11.00
2003,05,15,10,48,11.10
2003,05,15,10,49,11.10
2003,05,15,10,50,11.00
2003,05,15,10,51,11.10
2003,05,15,10,52,11.20
2003,05,15,10,53,11.40
2003,05,15,10,54,11.40
2003,05,15,10,55,11.30
2003,05,15,10,56,11.30
2003,05,15,10,57,11.20
2003,05,15,10,58,11.30
2003,05,15,10,59,11.30
2003,05,15,11,00,11.30
2003,05,15,11,01,11.20
2003,05,15,11,02,11.10
2003,05,15,11,03,11.10
2003,05,15,11,04,11.10
2003,05,15,11,05,10.80
2003,05,15,11,06,10.80
2003,05,15,11,07,10.90
2003,05,15,11,08,10.90
2003,05,15,11,09,10.90
2003,05,15,11,10,11.10
2003,05,15,11,11,11.10
2003,05,15,11,12,11.10
2003,05,15,11,13,11.10
2003,05,15,11,14,11.00
2003,05,15,11,15,11.10
2003,05,15,11,16,11.10
2003,05,15,11,17,11.20
2003,05,15,11,18,11.20
2003,05,15,11,19,11.40
2003,05,15,11,20,11.50
2003,05,15,11,21,11.60
2003,05,15,11,22,11.40
2003,05,15,11,23,11.20
2003,05,15,11,24,11.00
2003,05,15,11,25,11.10
2003,05,15,11,26,11.10
2003,05,15,11,27,11.20
2003,05,15,11,28,11.40
2003,05,15,11,29,11.40
2003,05,15,11,30,11.40
2003,05,15,11,31,11.40
2003,05,15,11,32,11.50
2003,05,15,11,33,11.70
2003,05,15,11,34,11.70
2003,05,15,11,35,11.60
2003,05,15,11,36,11.60
2003,05,15,11,37,11.80
2003,05,15,11,38,11.80
2003,05,15,11,39,11.90
2003,05,15,11,40,11.90
2003,05,15,11,41,11.80
2003,05,15,11,42,11.80
2003,05,15,11,43,11.90
2003,05,15,11,44,11.90
2003,05,15,11,45,11.80
2003,05,15,11,46,11.80
2003,05,15,11,47,11.40
2003,05,15,11,48,11.30
2003,05,15,11,49,11.10
2003,05,15,11,50,11.10
2003,05,15,11,51,11.40
2003,05,15,11,52,11.50
2003,05,15,11,53,11.70
2003,05,15,11,54,11.80
2003,05,15,11,55,11.90
2003,05,15,11,56,11.80
2003,05,15,11,57,11.50
2003,05,15,11,58,11.40
2003,05,15,11,59,11.20
2003,05,15,12,00,11.10
2003,05,15,12,01,10.90
2003,05,15,12,02,10.80
2003,05,15,12,03,10.60
2003,05,15,12,04,10.30
2003,05,15,12,05,10.20
2003,05,15,12,06,10.10
2003,05,15,12,07,10.00
2003,05,15,12,08,9.90
2003,05,15,12,09,9.80
2003,05,15,12,10,9.80
2003,05,15,12,11,9.60
2003,05,15,12,12,9.60
2003,05,15,12,13,9.50
2003,05,15,12,14,9.30
2003,05,15,12,15,9.30
2003,05,15,12,16,9.10
2003,05,15,12,17,9.20
2003,05,15,12,18,9.10
2003,05,15,12,19,8.90
2003,05,15,12,20,8.80
2003,05,15,12,21,8.70
2003,05,15,12,22,8.70
2003,05,15,12,23,8.80
2003,05,15,12,24,8.90
2003,05,15,12,25,8.80
2003,05,15,12,26,8.90
2003,05,15,12,27,9.00
2003,05,15,12,28,9.00
2003,05,15,12,29,9.00
2003,05,15,12,30,9.10
2003,05,15,12,31,9.10
2003,05,15,12,32,9.10
2003,05,15,12,33,9.10
2003,05,15,12,34,9.10
2003,05,15,12,35,9.20
2003,05,15,12,36,9.30
2003,05,15,12,37,9.30
2003,05,15,12,38,9.30
2003,05,15,12,39,9.30
2003,05,15,12,40,9.30
2003,05,15,12,41,9.30
2003,05,15,12,42,9.20
2003,05,15,12,43,9.00
2003,05,15,12,44,9.00
2003,05,15,12,45,9.10
2003,05,15,12,46,9.20
2003,05,15,12,47,9.10
2003,05,15,12,48,9.20
2003,05,15,12,49,9.10
2003,05,15,12,50,9.20
2003,05,15,12,51,9.10
2003,05,15,12,52,9.00
2003,05,15,12,53,9.10
2003,05,15,12,54,9.10
2003,05,15,12,55,9.10
2003,05,15,12,56,9.10
2003,05,15,12,57,9.10
2003,05,15,12,58,9.20
2003,05,15,12,59,9.40
2003,05,15,13,00,9.70
2003,05,15,13,01,9.70
2003,05,15,13,02,9.70
2003,05,15,13,03,9.70
2003,05,15,13,04,9.90
2003,05,15,13,05,10.10
2003,05,15,13,06,10.30
2003,05,15,13,07,10.20
2003,05,15,13,08,10.10
2003,05,15,13,09,9.60
2003,05,15,13,10,9.20
2003,05,15,13,11,9.10
2003,05,15,13,12,8.90
2003,05,15,13,13,8.70
2003,05,15,13,14,8.80
2003,05,15,13,15,8.90
2003,05,15,13,16,9.00
2003,05,15,13,17,8.90
2003,05,15,13,18,8.60
2003,05,15,13,19,8.30
2003,05,15,13,20,8.10
2003,05,15,13,21,8.00
2003,05,15,13,22,8.00
2003,05,15,13,23,8.00
2003,05,15,13,24,7.90
2003,05,15,13,25,7.90
2003,05,15,13,26,7.90
2003,05,15,13,27,7.90
2003,05,15,13,28,8.00
2003,05,15,13,29,8.00
2003,05,15,13,30,8.00
2003,05,15,13,31,8.10
2003,05,15,13,32,8.10
2003,05,15,13,33,8.10
2003,05,15,13,34,8.10
2003,05,15,13,35,8.10
2003,05,15,13,36,8.10
2003,05,15,13,37,8.20
2003,05,15,13,38,8.50
2003,05,15,13,39,8.90
2003,05,15,13,40,9.00
2003,05,15,13,41,9.00
2003,05,15,13,42,9.00
2003,05,15,13,43,9.10
2003,05,15,13,44,9.20
2003,05,15,13,45,9.30
2003,05,15,13,46,9.50
2003,05,15,13,47,9.60
2003,05,15,13,48,9.70
2003,05,15,13,49,9.70
2003,05,15,13,50,9.70
2003,05,15,13,51,9.60
2003,05,15,13,52,9.70
2003,05,15,13,53,9.70
2003,05,15,13,54,9.50
2003,05,15,13,55,9.40
2003,05,15,13,56,9.30
2003,05,15,13,57,9.20
2003,05,15,13,58,9.30
2003,05,15,13,59,9.40
2003,05,15,14,00,9.50
2003,05,15,14,01,9.70
2003,05,15,14,02,9.70
2003,05,15,14,03,9.80
2003,05,15,14,04,10.10
2003,05,15,14,05,10.10
2003,05,15,14,06,10.10
2003,05,15,14,07,10.10
2003,05,15,14,08,10.00
2003,05,15,14,09,10.10
2003,05,15,14,10,10.20
2003,05,15,14,11,10.30
2003,05,15,14,12,10.30
2003,05,15,14,13,10.40
2003,05,15,14,14,10.30
2003,05,15,14,15,10.30
2003,05,15,14,16,10.30
2003,05,15,14,17,10.20
2003,05,15,14,18,10.40
2003,05,15,14,19,10.40
2003,05,15,14,20,10.60
2003,05,15,14,21,10.60
2003,05,15,14,22,10.60
2003,05,15,14,23,10.60
2003,05,15,14,24,10.90
2003,05,15,14,25,10.90
2003,05,15,14,26,10.90
2003,05,15,14,27,10.90
2003,05,15,14,28,10.80
2003,05,15,14,29,10.80
2003,05,15,14,30,10.70
2003,05,15,14,31,10.70
2003,05,15,14,32,10.70
2003,05,15,14,33,10.70
2003,05,15,14,34,10.70
2003,05,15,14,35,10.70
2003,05,15,14,36,10.70
2003,05,15,14,37,10.70
2003,05,15,14,38,10.70
2003,05,15,14,39,10.60
2003,05,15,14,40,10.70
2003,05,15,14,41,10.70
2003,05,15,14,42,10.80
2003,05,15,14,43,10.90
2003,05,15,14,44,10.90
2003,05,15,14,45,10.90
2003,05,15,14,46,10.90
2003,05,15,14,47,10.90
2003,05,15,14,48,10.90
2003,05,15,14,49,10.70
2003,05,15,14,50,10.70
2003,05,15,14,51,10.70
2003,05,15,14,52,10.50
2003,05,15,14,53,10.40
2003,05,15,14,54,10.40
2003,05,15,14,55,10.40
2003,05,15,14,56,10.40
2003,05,15,14,57,10.40
2003,05,15,14,58,10.00
2003,05,15,14,59,10.00
2003,05,15,15,00,10.10
2003,05,15,15,01,10.10
2003,05,15,15,02,10.10
2003,05,15,15,03,10.00
2003,05,15,15,04,9.90
2003,05,15,15,05,9.80
2003,05,15,15,06,9.90
2003,05,15,15,07,9.70
2003,05,15,15,08,9.70
2003,05,15,15,09,9.70
2003,05,15,15,10,9.70
2003,05,15,15,11,9.70
2003,05,15,15,12,9.80
2003,05,15,15,13,9.80
2003,05,15,15,14,9.80
2003,05,15,15,15,9.80
2003,05,15,15,16,9.70
2003,05,15,15,17,9.70
2003,05,15,15,18,9.70
2003,05,15,15,19,9.70
2003,05,15,15,20,9.70
2003,05,15,15,21,9.70
2003,05,15,15,22,9.70
2003,05,15,15,23,9.70
2003,05,15,15,24,9.70
2003,05,15,15,25,9.70
2003,05,15,15,26,10.00
2003,05,15,15,27,10.20
2003,05,15,15,28,10.00
2003,05,15,15,29,9.90
2003,05,15,15,30,9.90
2003,05,15,15,31,9.90
2003,05,15,15,32,9.90
2003,05,15,15,33,10.00
2003,05,15,15,34,10.00
2003,05,15,15,35,10.10
2003,05,15,15,36,10.20
2003,05,15,15,37,10.20
2003,05,15,15,38,10.20
2003,05,15,15,39,10.30
2003,05,15,15,40,10.40
2003,05,15,15,41,10.20
2003,05,15,15,42,10.10
2003,05,15,15,43,10.10
2003,05,15,15,44,10.10
2003,05,15,15,45,10.20
2003,05,15,15,46,10.10
2003,05,15,15,47,10.10
2003,05,15,15,48,10.10
2003,05,15,15,49,10.10
2003,05,15,15,50,10.00
2003,05,15,15,51,10.10
2003,05,15,15,52,10.10
2003,05,15,15,53,10.10
2003,05,15,15,54,10.10
2003,05,15,15,55,10.10
2003,05,15,15,56,10.10
2003,05,15,15,57,10.20
2003,05,15,15,58,10.30
2003,05,15,15,59,10.40
2003,05,15,16,00,10.40
2003,05,15,16,01,10.40
2003,05,15,16,02,10.40
2003,05,15,16,03,10.50
2003,05,15,16,04,10.40
2003,05,15,16,05,10.40
2003,05,15,16,06,10.40
2003,05,15,16,07,10.50
2003,05,15,16,08,10.50
2003,05,15,16,09,10.40
2003,05,15,16,10,10.40
2003,05,15,16,11,10.60
2003,05,15,16,12,10.70
2003,05,15,16,13,10.80
2003,05,15,16,14,11.00
2003,05,15,16,15,11.20
2003,05,15,16,16,11.40
2003,05,15,16,17,11.30
2003,05,15,16,18,11.30
2003,05,15,16,19,11.20
2003,05,15,16,20,11.60
2003,05,15,16,21,11.70
2003,05,15,16,22,11.80
2003,05,15,16,23,11.90
2003,05,15,16,24,11.70
2003,05,15,16,25,11.60
2003,05,15,16,26,11.40
2003,05,15,16,27,11.40
2003,05,15,16,28,11.70
2003,05,15,16,29,11.80
2003,05,15,16,30,11.80
2003,05,15,16,31,11.80
2003,05,15,16,32,11.80
2003,05,15,16,33,11.80
2003,05,15,16,34,11.80
2003,05,15,16,35,11.60
2003,05,15,16,36,11.60
2003,05,15,16,37,11.50
2003,05,15,16,38,11.30
2003,05,15,16,39,11.30
2003,05,15,16,40,11.20
2003,05,15,16,41,11.10
2003,05,15,16,42,11.10
2003,05,15,16,43,11.20
2003,05,15,16,44,11.00
2003,05,15,16,45,11.00
2003,05,15,16,46,11.10
2003,05,15,16,47,11.30
2003,05,15,16,48,11.40
2003,05,15,16,49,11.50
2003,05,15,16,50,11.60
2003,05,15,16,51,11.60
2003,05,15,16,52,11.50
2003,05,15,16,53,11.40
2003,05,15,16,54,11.40
2003,05,15,16,55,11.60
2003,05,15,16,56,11.60
2003,05,15,16,57,11.60
2003,05,15,16,58,11.60
2003,05,15,16,59,11.60
2003,05,15,17,00,11.60
2003,05,15,17,01,11.70
2003,05,15,17,02,11.70
2003,05,15,17,03,11.70
2003,05,15,17,04,11.70
2003,05,15,17,05,11.80
2003,05,15,17,06,11.60
2003,05,15,17,07,11.60
2003,05,15,17,08,11.60
2003,05,15,17,09,11.50
2003,05,15,17,10,11.40
2003,05,15,17,11,11.40
2003,05,15,17,12,11.20
2003,05,15,17,13,11.00
2003,05,15,17,14,10.90
2003,05,15,17,15,10.80
2003,05,15,17,16,10.90
2003,05,15,17,17,10.80
2003,05,15,17,18,10.70
2003,05,15,17,19,10.60
2003,05,15,17,20,10.60
2003,05,15,17,21,10.50
2003,05,15,17,22,10.40
2003,05,15,17,23,10.30
2003,05,15,17,24,10.20
2003,05,15,17,25,10.20
2003,05,15,17,26,10.10
2003,05,15,17,27,10.00
2003,05,15,17,28,9.90
2003,05,15,17,29,9.70
2003,05,15,17,30,9.60
2003,05,15,17,31,9.50
2003,05,15,17,32,9.40
2003,05,15,17,33,9.30
2003,05,15,17,34,9.20
2003,05,15,17,35,9.10
2003,05,15,17,36,8.90
2003,05,15,17,37,9.00
2003,05,15,17,38,9.10
2003,05,15,17,39,9.10
2003,05,15,17,40,9.20
2003,05,15,17,41,9.00
2003,05,15,17,42,8.80
2003,05,15,17,43,8.80
2003,05,15,17,44,8.80
2003,05,15,17,45,8.90
2003,05,15,17,46,9.10
2003,05,15,17,47,9.20
2003,05,15,17,48,9.40